Beckley, WV

5:32 AM EDT on September 16, 2019 (GMT -0400)
Raleigh County Memorial

Weather History for KBKW - August, 2019

Change the Weather History Date:

Tuesday, August 20, 2019

  Actual Average Record
Temperature  
Mean Temperature 77 °F 70 °F  
Max Temperature 87 °F 79 °F 94 °F (1936)
Min Temperature 67 °F 60 °F 33 °F (1940)
Degree Days  
Heating Degree Days 0 0  
Month to date heating degree days 0 0  
Since 1 June heating degree days 36 47  
Since 1 July heating degree days 3 8  
Cooling Degree Days 12 5  
Month to date cooling degree days 153 113  
Year to date cooling degree days 654 446  
Since 1 June cooling degree days 534 405  
Growing Degree Days 27 (Base 50)    
Moisture  
Dew Point 64 °F    
Average Humidity 67    
Maximum Humidity 90    
Minimum Humidity 41    
Precipitation  
Precipitation 0.00 in 0.10 in 2.49 in (1947)
Month to date precipitation 3.02 2.45  
Year to date precipitation 31.14 28.64  
Sea Level Pressure  
Sea Level Pressure 30.07 in    
Wind  
Wind Speed 3 mph ()    
Max Wind Speed 21 mph    
Max Gust Speed 27 mph    
Visibility 9.9 miles    
Events Thunderstorm    
T = Trace of Precipitation, MM = Missing Value Source: Averaged Metar Reports

Daily Weather History Graph

Daily Weather History Graph

Search for Another Location

Airport or City:

Astronomy

Aug. 20, 2019 Rise Set
Actual Time 6:44 AM EDT 8:11 PM EDT
Civil Twilight 6:16 AM EDT 8:38 PM EDT
Nautical Twilight 5:43 AM EDT 9:11 PM EDT
Astronomical Twilight 5:08 AM EDT 9:46 PM EDT
Moon 11:04 PM EDT (8/20) 11:16 AM EDT (8/20)
Length of Visible Light 14h 22m
Length of Day
13h 26m
Waning Gibbous, 78% of the Moon is Illuminated
Aug 20
Waning Gibbous
Aug 23
Last Quarter
Aug 30
New
Sep 5
First Quarter
Sep 14
Full

Hourly Weather History & Observations

Time (EDT) Temp. Heat Index Dew Point Humidity Pressure Visibility Wind Dir Wind Speed Gust Speed Precip Events Conditions
12:51 AM 71.1 °F - 64.9 °F 81% 30.06 in 10.0 mi Calm Calm - N/A   Clear
1:51 AM 68.0 °F - 64.9 °F 90% 30.07 in 8.0 mi Calm Calm - N/A   Clear
2:51 AM 69.1 °F - 64.9 °F 87% 30.06 in 10.0 mi Calm Calm - N/A   Clear
3:51 AM 68.0 °F - 64.0 °F 87% 30.06 in 10.0 mi Calm Calm - N/A   Clear
4:51 AM 68.0 °F - 64.0 °F 87% 30.06 in 10.0 mi Calm Calm - N/A   Clear
5:51 AM 69.1 °F - 63.0 °F 81% 30.07 in 10.0 mi SSE 5.8 mph - N/A   Clear
6:51 AM 70.0 °F - 64.0 °F 81% 30.08 in 10.0 mi Calm Calm - N/A   Clear
7:51 AM 71.1 °F - 64.9 °F 81% 30.09 in 10.0 mi Calm Calm - N/A   Clear
8:51 AM 75.0 °F - 66.9 °F 76% 30.11 in 10.0 mi Calm Calm - N/A   Clear
9:51 AM 79.0 °F - 66.0 °F 64% 30.09 in 10.0 mi West 4.6 mph - N/A   Clear
10:51 AM 82.0 °F 84.5 °F 66.9 °F 60% 30.09 in 10.0 mi Variable 3.5 mph - N/A   Clear
11:51 AM 84.0 °F 86.3 °F 66.0 °F 55% 30.09 in 10.0 mi Variable 3.5 mph - N/A   Partly Cloudy
12:42 PM 82.9 °F 85.0 °F 66.0 °F 56% 30.22 in 10.0 mi SSE 6.9 mph - N/A Thunderstorm Clear
12:51 PM 84.0 °F 86.3 °F 66.0 °F 55% 30.09 in 10.0 mi ESE 4.6 mph - N/A Thunderstorm Partly Cloudy
1:07 PM 84.9 °F 86.1 °F 64.0 °F 49% 30.20 in 10.0 mi Variable 6.9 mph - N/A   Mostly Cloudy
1:51 PM 86.0 °F 87.3 °F 64.0 °F 48% 30.06 in 10.0 mi SE 6.9 mph - N/A   Scattered Clouds
2:51 PM 86.0 °F 85.7 °F 60.1 °F 41% 30.04 in 10.0 mi SE 10.4 mph - N/A   Clear
3:51 PM 84.9 °F 85.4 °F 62.1 °F 46% 30.03 in 10.0 mi South 9.2 mph - N/A   Clear
4:51 PM 82.9 °F 84.4 °F 64.0 °F 53% 30.01 in 10.0 mi South 4.6 mph - N/A   Clear
5:51 PM 82.9 °F 84.6 °F 64.9 °F 54% 30.01 in 10.0 mi SSW 5.8 mph - N/A   Clear
6:51 PM 80.1 °F 81.9 °F 64.9 °F 60% 30.01 in 10.0 mi South 4.6 mph - N/A   Clear
7:51 PM 79.0 °F - 64.9 °F 62% 30.01 in 10.0 mi South 5.8 mph - N/A   Mostly Cloudy
8:51 PM 75.0 °F - 63.0 °F 66% 30.03 in 10.0 mi SSW 13.8 mph - N/A   Partly Cloudy
9:51 PM 73.0 °F - 62.1 °F 68% 30.02 in 10.0 mi SW 8.1 mph - N/A   Partly Cloudy
10:51 PM 72.0 °F - 63.0 °F 73% 30.02 in 10.0 mi Calm Calm - N/A   Mostly Cloudy
11:51 PM 72.0 °F - 62.1 °F 71% 30.02 in 10.0 mi SW 4.6 mph - N/A   Clear